Weather Roundup
Issued by NWS

Home | Current Version | Previous Version | Graphics & Text | Print | Product List | Glossary Off
Versions: 1 2 3 4 5 6 7 8 9 10 11 12 13 14 15 16 17 18 19 20 21 22 23 24 25 26 27 28 29 30 31 32 33 34 35 36 37 38 39 40 41 42 43 44 45 46 47 48 49 50

181
NZUS93 KARX 041310
HRRWXR

CURRENT HOURLY OBSERVATIONS ACROSS
MUCH OF THE UPPER MISSISSIPPI VALLEY
NATIONAL WEATHER SERVICE LA CROSSE WI
700 AM CST SUN DEC 04 2016


...SOUTHEAST MINNESOTA...


CITY           SKY/WX    TMP DP  RH WIND       PRES   REMARKS
ROCHESTER      LGT SNOW  32  31  96 S14       29.94F VSB 3/4 WCI  22
ROCHESTER/MAYO CLOUDY    32  32 100 SE9       29.95F WCI  24
WINONA         LGT SNOW  32  32 100 SE8       30.01F WCI  25
AUSTIN         LGT SNOW  32  30  93 S8        29.93F WCI  25
ALBERT LEA     CLOUDY    36  36 100 S8        29.92F FOG     WCI  29
DODGE CENTER   LGT SNOW  30  30 100 SE9       29.93F WCI  22
PRESTON        LGT SNOW  31  30  95 S9        29.97F WCI  23
OWATONNA       LGT SNOW  34  30  86 SE12      29.92F WCI  25
FARIBAULT      MIX PCPN  34  32  93 SE7       29.93F WCI  28
$$

...ELSEWHERE IN MINNESOTA...


CITY           SKY/WX    TMP DP  RH WIND       PRES   REMARKS
MINNEAPOLIS    LGT SNOW  32  30  92 SE9       29.94F FOG     WCI  24
INTNL FALLS    CLOUDY    27  24  89 SE9       29.87F FOG     WCI  18
DULUTH         LGT SNOW  28  26  92 SE12      29.94F FOG     WCI  18
RED WING       NOT AVBL
REDWOOD FALLS  CLOUDY    35  32  88 S8        29.87F WCI  29
MANKATO        CLOUDY   N/A N/A N/A S8        29.91F
WORTHINGTON    CLOUDY    32  31  96 SW9       29.88S WCI  24
FAIRMONT       CLOUDY    33  32  96 S10       29.91S FOG     WCI  25
$$

...SOUTHWEST WISCONSIN...


CITY           SKY/WX    TMP DP  RH WIND       PRES   REMARKS
LA CROSSE      LGT SNOW  34  31  88 SE12G18   30.03F FOG     WCI  25
PRAIRIE DU CHI LGT SNOW  32  31  96 SE7       30.05F WCI  26
BOSCOBEL       LGT SNOW  33  30  88 SE5       30.08F FOG     WCI  29
LONE ROCK      LGT SNOW  31  30  96 SE7       30.10F VSB 3/4 WCI  24
PLATTEVILLE    CLOUDY    31  31 100 SE12      30.07F WCI  22
FORT MC COY    LGT SNOW  31  31  98 SE6       30.06F WCI  25
CAMP DOUGLAS   LGT SNOW  30  29  95 E8        30.07F FOG     WCI  22
MAUSTON-NEW LI LGT SNOW  31  30  96 SE5       30.07F WCI  26
VIROQUA        CLOUDY    31  31 100 SE12      30.03F WCI  21
WIS DELLS      LGT SNOW  31  29  95 SE6       30.09F WCI  25
$$

...ELSEWHERE IN WISCONSIN...


CITY           SKY/WX    TMP DP  RH WIND       PRES   REMARKS
MILWAUKEE      CLOUDY    33  25  72 CALM      30.17F
MADISON        LGT SNOW  31  29  92 SE10      30.12F VSB 1   WCI  22
GREEN BAY      CLOUDY    32  26  78 S3        30.16S
EAU CLAIRE     LGT SNOW  30  29  96 SE8       30.00F FOG     WCI  22
BLACK RVR FLS  LGT SNOW  31  31 100 E5        30.04F VSB 1   WCI  27
MEDFORD        LGT SNOW  26  25  93 SE8       30.03F WCI  18
WAUSAU         LGT SNOW  27  24  89 SE6       30.07F FOG     WCI  20
WIS RAPIDS     LGT SNOW  29  28  96 SE5       30.09F FOG     WCI  24
MARSHFIELD     LGT SNOW  28  25  88 SE8       30.05F FOG     WCI  20
RICE LAKE      LGT SNOW  30  28  94 SE9       30.01F WCI  21
$$

...NORTHEAST IOWA...


CITY           SKY/WX    TMP DP  RH WIND       PRES   REMARKS
WATERLOO       LGT SNOW  33  31  92 S13       29.99F FOG     WCI  24
DUBUQUE        LGT SNOW  30  28  92 SE13      30.05F FOG     WCI  20
DECORAH        LGT SNOW  32  32 100 SE13      29.98F WCI  22
MASON CITY     LGT SNOW  32  32 100 S14       29.95F FOG     WCI  22
CHARLES CITY   LGT SNOW  32  32 100 S15       29.97F VSB 1   WCI  22
OELWEIN        LGT SNOW  32  32 100 S18       30.01F VSB 3/4 WCI  20
$$

...ELSEWHERE IN IOWA...


CITY           SKY/WX    TMP DP  RH WIND       PRES   REMARKS
DES MOINES     LGT SNOW  34  33  96 S8        30.00S VSB 3/4 WCI  27
IOWA CITY      LGT SNOW  33  32  96 SE10      30.07F VSB 3/4 WCI  25
FORT DODGE     CLOUDY    34  30  86 S10       29.95S WCI  26
MARSHALLTOWN   LGT SNOW  33  33 100 S13       29.99S FOG     WCI  24
CEDAR RAPIDS   LGT SNOW  32  32 100 SE8       30.03F FOG     WCI  25
$$

...NORTHERN ILLINOIS...


CITY           SKY/WX    TMP DP  RH WIND       PRES   REMARKS
CHICAGO-OHARE  CLOUDY    32  26  78 CALM      30.17F
CHICAGO-MIDWAY CLOUDY    33  24  69 SE3       30.17F
MOLINE         LGT SNOW  33  30  88 SE8       30.10S VSB 3/4 WCI  26
ROCKFORD       FLURRIES  32  26  78 SE7       30.16F WCI  26
PEORIA         LGT SNOW  34  30  85 E6        30.11F FOG     WCI  29
$$

NOTE: "FAIR" INDICATES FEW OR NO CLOUDS BELOW 12,000 FEET WITH NO
SIGNIFICANT WEATHER AND/OR OBSTRUCTIONS TO VISIBILITY. WIND
SPEEDS ARE IN MILES-PER-HOUR.




USA.gov is the U.S. government's official web portal to all federal, state and local government web resources and services.